Flag for Germany Weather past 2 weeks in Rathenow, Brandenburg, Germany

Now
55 °F

Clear.


Feels Like: 55 °F
Forecast: 51 / 64 °F
Wind: 1 mph from Southwest

Location: Neuruppin

Current Time: Sep 3, 2015 at 12:04:34 AM

Latest Report: Sep 2, 2015 at 10:00 PM


Visibility: 6 mi

Pressure: 29.99 "Hg

Humidity: 81%

Dew point: 49 °F

Location of RathenowLocation

Historic Weather in Rathenow — Graph

°F

Rathenow temperature yesterday

Maximum temperature yesterday: 67 °F (at 4:00 PM)
Minimum temperature yesterday: 53 °F (at 7:00 AM)
Average temperature yesterday: 59 °F

Past Weeks' High & Low Weather Summary

 TemperatureHumidityPressure
High89 °F (Aug 31, 4:00 PM)99% (Aug 20, 3:00 AM)30.32 "Hg (Aug 20, 3:00 AM)
Low51 °F (Aug 29, 7:00 AM)32% (Aug 22, 3:00 PM)29.70 "Hg (Aug 24, 8:00 PM)
Average66 °F73%30.02 "Hg
* Reported Aug 18 10:00 PM — Sep 2 10:00 PM, Rathenow, Weather by CustomWeather, © 2015

Note: Actual official high and low records may vary slightly from our data, if they occured in-between our weather recording intervals... More about our weather records

Advertising

Rathenow weather history for previous 24 hours

 ConditionsComfort  
Time TempWeatherWind HumidityBarometerVisibility
10:00 PM
Wed, Sep 2
55 °FClear.1 mph81%29.99 "Hg6 mi
9:00 PM56 °FClear.1 mph82%30.00 "Hg6 mi
8:00 PM61 °FClear.1 mph67%29.98 "Hg6 mi
7:00 PM64 °FSunny.2 mph57%29.98 "Hg6 mi
6:00 PM65 °FScattered clouds.2 mph55%29.98 "Hg7 mi
4:00 PM67 °FPartly sunny.2 mph54%29.98 "Hg6 mi
3:00 PM65 °FOvercast.3 mph58%29.98 "Hg6 mi
2:00 PM65 °FScattered clouds.5 mph56%29.99 "Hg6 mi
1:00 PM63 °FScattered clouds.3 mph63%30.00 "Hg6 mi
12:00 PM62 °FPassing clouds.5 mph66%30.00 "Hg6 mi
11:00 AM61 °FPartly sunny.5 mph72%29.99 "Hg6 mi
10:00 AM59 °FPassing clouds.3 mph78%29.99 "Hg6 mi
9:00 AM56 °FLow clouds.2 mph89%29.99 "Hg6 mi
8:00 AM54 °FPartly sunny.2 mph95%29.98 "Hg6 mi
7:00 AM53 °FSunny.1 mph96%29.96 "Hg6 mi
5:00 AM54 °FClear.1 mph94%29.95 "Hg6 mi
4:00 AM55 °FClear.2 mph94%29.94 "Hg6 mi
3:00 AM56 °FClear.2 mph92%29.94 "Hg6 mi
2:00 AM58 °FOvercast.2 mph90%29.93 "Hg6 mi
1:00 AM58 °FOvercast.2 mph90%29.91 "Hg6 mi
Weather by CustomWeather, © 2015

See weather overviewHow to use our weather pages